712 
ASUS46 KSEW 240620
RWRWA 

WASHINGTON REGIONAL WEATHER ROUNDUP
NATIONAL WEATHER SERVICE SEATTLE WA
1000 PM PST SAT JAN 23 2021

NOTE:"FAIR" INDICATES FEW OR NO CLOUDS BELOW 12,000 FEET WITH NO 
SIGNIFICANT WEATHER AND/OR OBSTRUCTIONS TO VISIBILITY.

WAZ507-509-555>559-240700-
SEATTLE, TACOMA, EVERETT, AND VICINITY
  
CITY           SKY/WX    TMP DP  RH WIND       PRES   REMARKS
EVERETT        CLOUDY    37  30  75 VRB5      30.00F                  
6HR MIN TEMP:  35; 6HR MAX TEMP:  38;                                

BOEING FIELD   CLOUDY    39  30  70 SE7       30.02F                  
6HR MIN TEMP:  38; 6HR MAX TEMP:  42;                                

RENTON         CLOUDY    38  29  70 CALM      30.02F                  
6HR MIN TEMP:  37; 6HR MAX TEMP:  44;                                

SEATAC AIRPORT CLOUDY    40  29  64 SE6       30.01F                  
6HR MIN TEMP:  39; 6HR MAX TEMP:  42;                                

JBLM-MCCHORD   NOT AVBL                                               
PUYALLUP       CLOUDY    39  32  75 CALM      30.01F                  
BREMERTON      CLOUDY    37  34  89 S3        30.00F                  
6HR MIN TEMP:  37; 6HR MAX TEMP:  40;                                

JBLM-FT LEWIS  NOT AVBL                                               
TACOMA NARROWS CLOUDY    39  31  72 S8        30.01F                  
6HR MIN TEMP:  39; 6HR MAX TEMP:  40;                                

$$
 
WAZ001-503-506-510-514-515-240700-
NORTH INTERIOR
  
CITY           SKY/WX    TMP DP  RH WIND       PRES   REMARKS
BELLINGHAM     CLOUDY    35  31  85 CALM      30.01F                  
6HR MIN TEMP:  32; 6HR MAX TEMP:  40;                                

FRIDAY HARBOR  CLOUDY    40  34  79 E7        30.00F                  
6HR MIN TEMP:  35; 6HR MAX TEMP:  40;                                

EASTSOUND      CLOUDY    41  32  70 S8        29.99F                  
PORT ANGELES   MOCLDY    33  30  88 CALM      29.98F                  
6HR MIN TEMP:  31; 6HR MAX TEMP:  41;                                

EDIZ HOOK      FAIR      36  32  85 CALM      29.99F                  
6HR MIN TEMP:  35; 6HR MAX TEMP:  41;                                

PORT TOWNSEND  CLOUDY    34  32  93 CALM      29.99F                  
NAS WHIDBEY    CLOUDY    36  29  75 SE3       30.04F                  
6HR MIN TEMP:  35; 6HR MAX TEMP:  42;                                

ARLINGTON      CLOUDY    33  30  88 CALM      30.02F                  
6HR MIN TEMP:  30; 6HR MAX TEMP:  39;                                

BURLINGTON     CLOUDY    34  32  93 N3        30.01F                  
$$
 
WAZ020-022-039-040-504-511-512-240700-
SOUTHWEST INTERIOR
  
CITY           SKY/WX    TMP DP  RH WIND       PRES   REMARKS
SHELTON        CLOUDY    38  37  97 CALM      29.98F FOG              
6HR MIN TEMP:  37; 6HR MAX TEMP:  43; 6HR PCP:  0.01;                

OLYMPIA        CLOUDY    37  33  85 SW7       30.02F                  
6HR MIN TEMP:  35; 6HR MAX TEMP:  38; 6HR PCP: TRACE;                

CHEHALIS       CLOUDY    37  36  93 SW3       30.02F                  
KELSO          CLOUDY    40  34  79 CALM      30.05F                  
6HR MIN TEMP:  40; 6HR MAX TEMP:  44;                                

VANCOUVER      CLOUDY    42  32  67 SE5       30.04F                  
6HR MIN TEMP:  41; 6HR MAX TEMP:  46;                                

SCAPPOOSE, OR  CLOUDY    39  35  86 CALM      30.04F                  
6HR MIN TEMP:  39; 6HR MAX TEMP:  43;                                

PORTLAND, OR   CLOUDY    41  33  73 E7        30.05F                  
6HR MIN TEMP:  41; 6HR MAX TEMP:  46;                                

$$
 
WAZ021-516-517-240700-
WASHINGTON COAST
  
CITY           SKY/WX    TMP DP  RH WIND       PRES   REMARKS
FORKS          CLOUDY    41  34  76 SE5       29.97F                  
6HR MIN TEMP:  41; 6HR MAX TEMP:  42;                                

HOQUIAM        CLOUDY    41  38  89 S7        29.99F                  
6HR MIN TEMP:  41; 6HR MAX TEMP:  44;                                

ASTORIA, OR    MOCLDY    38  36  92 SE5       30.02F                  
6HR MIN TEMP:  38; 6HR MAX TEMP:  44; 6HR PCP: TRACE;                

$$
 
WAZ019-023-024-040-567>569-240700-
CASCADE MOUNTAINS AND COLUMBIA GORGE
  
CITY           SKY/WX    TMP DP  RH WIND       PRES   REMARKS
STAMPEDE PASS  CLOUDY    25  21  85 VRB6      29.86F                  
6HR MIN TEMP:  25; 6HR MAX TEMP:  29;                                

TROUTDALE, OR  CLOUDY    41  31  67 E3        30.05F                  
6HR MIN TEMP:  40; 6HR MAX TEMP:  47;                                

HOOD RIVER, OR MOCLDY    37  32  81 W9        29.99F                  
THE DALLES, OR MOCLDY    29  27  92 CALM      30.01F                  
6HR MIN TEMP:  27; 6HR MAX TEMP:  35;                                

$$

WAZ026-027-041>044-520-521-240700-
EAST SLOPES
  
CITY           SKY/WX    TMP DP  RH WIND       PRES   REMARKS
OMAK           CLOUDY    26  17  68 NW5       30.00F                  
6HR MIN TEMP:  20; 6HR MAX TEMP:  32;                                

WENATCHEE      PTCLDY    25  19  78 W3        29.97F                  
6HR MIN TEMP:  25; 6HR MAX TEMP:  34;                                

ELLENSBURG     PTCLDY    25  19  78 E3        29.92F                  
6HR MIN TEMP:  24; 6HR MAX TEMP:  39;                                

YAKIMA         PTCLDY    22  19  89 W6        29.97F                  
6HR MIN TEMP:  22; 6HR MAX TEMP:  38;                                

SUNNYSIDE ARPT PTCLDY    27  25  93 CALM      29.98F                  
6HR MIN TEMP:  27; 6HR MAX TEMP:  38;                                

YAKIMA TC      NOT AVBL                                               
$$

WAZ028-034-035-240700-
COLUMBIA BASIN
  
CITY           SKY/WX    TMP DP  RH WIND       PRES   REMARKS
EPHRATA        CLOUDY    26  22  84 N9        29.97F                  
6HR MIN TEMP:  22; 6HR MAX TEMP:  33;                                

MOSES LAKE     CLEAR     24  20  84 N7        29.97F                  
6HR MIN TEMP:  24; 6HR MAX TEMP:  37;                                

PASCO          MOCLDY    28  24  85 CALM      30.00F                  
6HR MIN TEMP:  24; 6HR MAX TEMP:  41;                                

RICHLAND ARPT  PTCLDY    28  26  96 CALM      30.00F                  
6HR MIN TEMP:  27; 6HR MAX TEMP:  42;                                

HERMISTON, OR  CLEAR     24  20  84 CALM      29.98F FOG              
6HR MIN TEMP:  23; 6HR MAX TEMP:  43;                                

$$

WAZ036>038-240700-
NORTHEAST WASHINGTON
  
CITY           SKY/WX    TMP DP  RH WIND       PRES   REMARKS
SPOKANE GEIGER MOCLDY    23  19  85 NE3       29.95F                  
6HR MIN TEMP:  23; 6HR MAX TEMP:  29;                                

SPOKANE FELTS  CLOUDY    26  22  84 CALM      29.98F                  
6HR MIN TEMP:  22; 6HR MAX TEMP:  31;                                

FAIRCHILD AFB  NOT AVBL                                               
COEURDALENE,ID CLEAR     18  15  88 N7        29.96F                  
6HR MIN TEMP:  18; 6HR MAX TEMP:  29;                                

DEER PARK      CLOUDY    22  18  85 CALM      29.97F                  
6HR MIN TEMP:  15; 6HR MAX TEMP:  26;                                

$$

WAZ029>033-240700-
SOUTHEAST WASHINGTON
  
CITY           SKY/WX    TMP DP  RH WIND       PRES   REMARKS
PULLMAN        CLEAR     26  19  74 E13       29.95F WCI  15          
6HR MIN TEMP:  25; 6HR MAX TEMP:  30;                                

LEWISTON, ID   CLEAR     27  21  78 SE3       30.00F                  
6HR MIN TEMP:  27; 6HR MAX TEMP:  37;                                

WALLA WALLA    CLEAR     30  20  66 SE8       29.97F                  
6HR MIN TEMP:  28; 6HR MAX TEMP:  37;                                

PENDLETON, OR  CLEAR     28  24  85 SE8       29.97F                  
6HR MIN TEMP:  28; 6HR MAX TEMP:  38;                                

$$